Hopewell, New Jersey, United States (08525)
Lat: 40.39N, Lon: 74.76W
Wx Zone: NJZ015
Local Info
Past Weather Observations for Thursday, April 23, 2015

NOTE: This archive is for the closest National Weather Service station to Hopewell. Information may differ from the station used for current weather conditions.

Click here for Long-term Archive

Time Weather Temperature Dewpoint Humidity Pressure Winds Precip Visibility
23:53
Mostly Cloudy
34°F / 1°C 25°F / -4°C 70% 29.86 in
(1011 mb)
Calm - 10SM
22:53
Clear
36°F / 2°C 25°F / -4°C 65% 29.86 in
(1011 mb)
Calm - 10SM
21:53
Clear
36°F / 2°C 23°F / -5°C 60% 29.86 in
(1011 mb)
Calm - 10SM
20:53
Clear
41°F / 5°C 21°F / -6°C 45% 29.83 in
(1010 mb)
Variable 3.5 mph
(Variable 6 kph)
- 10SM
19:53
Partly Cloudy
43°F / 6°C 25°F / -4°C 49% 29.83 in
(1010 mb)
Variable 5.8 mph
(Variable 9 kph)
- 10SM
18:53
Overcast
45°F / 7°C 25°F / -4°C 46% 29.8 in
(1009 mb)
WNW 8.1 mph
(WNW 13 kph)
0.00 in
(0.00 mm)
10SM
16:53
Overcast
46°F / 8°C 27°F / -3°C 46% 29.77 in
(1008 mb)
NW 10.4 mph
(NW 17 kph)
0.00 in
(0.00 mm)
10SM
15:53
Overcast
46°F / 8°C 28°F / -2°C 50% 29.74 in
(1007 mb)
WNW 11.5 mph
(WNW 19 kph)
- 10SM
14:53
Overcast
48°F / 9°C 28°F / -2°C 46% 29.74 in
(1007 mb)
WNW 8.1 mph
(WNW 13 kph)
- 10SM
13:53
Overcast
48°F / 9°C 27°F / -3°C 43% 29.74 in
(1007 mb)
NW 12.7 mph
(NW 20 kph)
0.00 in
(0.00 mm)
10SM
12:53
Overcast
48°F / 9°C 25°F / -4°C 40% 29.74 in
(1007 mb)
NW 13.8 mph
(NW 22 kph)
0.00 in
(0.00 mm)
10SM
11:53
Mostly Cloudy
48°F / 9°C 28°F / -2°C 46% 29.74 in
(1007 mb)
W 8.1 mph
(W 13 kph)
0.00 in
(0.00 mm)
10SM
10:53
Overcast
48°F / 9°C 25°F / -4°C 40% 29.74 in
(1007 mb)
NW 15 mph
(NW 24 kph)
- 10SM
09:53
Overcast
46°F / 8°C 25°F / -4°C 43% 29.77 in
(1008 mb)
W 11.5 mph
(W 19 kph)
- 10SM
08:53
Mostly Cloudy
46°F / 8°C 25°F / -4°C 43% 29.77 in
(1008 mb)
SSW 10.4 mph
(SSW 17 kph)
- 10SM
07:53
Mostly Cloudy
43°F / 6°C 27°F / -3°C 53% 29.77 in
(1008 mb)
W 13.8 mph
(W 22 kph)
- 10SM
06:53
Partly Cloudy
43°F / 6°C 27°F / -3°C 53% 29.77 in
(1008 mb)
Variable 5.8 mph
(Variable 9 kph)
- 10SM
05:53
Partly Cloudy
39°F / 4°C 27°F / -3°C 61% 29.77 in
(1008 mb)
W 3.5 mph
(W 6 kph)
- 10SM
04:53
Clear
39°F / 4°C 27°F / -3°C 61% 29.74 in
(1007 mb)
WNW 5.8 mph
(WNW 9 kph)
- 10SM
03:53
Clear
39°F / 4°C 28°F / -2°C 65% 29.71 in
(1006 mb)
Variable 5.8 mph
(Variable 9 kph)
- 10SM
02:53
Clear
39°F / 4°C 28°F / -2°C 65% 29.71 in
(1006 mb)
Variable 4.6 mph
(Variable 7 kph)
- 10SM
01:53
Clear
41°F / 5°C 28°F / -2°C 61% 29.71 in
(1006 mb)
WNW 4.6 mph
(WNW 7 kph)
- 10SM
00:53
Clear
43°F / 6°C 30°F / -1°C 61% 29.71 in
(1006 mb)
WNW 4.6 mph
(WNW 7 kph)
- 10SM
Time Weather Temperature Dewpoint Humidity Pressure Winds Precip Visibility


Weather for websites

WeatherForYou.com, LLC is not responsible for any damages or problems caused by this service. Current weather conditions are obtained from the closest station including government and personal stations which may have varying degrees of accuracy. Weather forecasts are derived from the NOAA NDFD. Like all things, this site belongs to Jesus Christ... He just trusts us to maintain it. If you have any questions or comments email webmaster@weatherforyou.com

Copyright © 2015, WeatherForYou.com LLC. All rights reserved.